Hourly Data Report for September 22, 2017

All times are specified in Local Standard Time (LST). Add 1 hour to adjust for Daylight Saving Time where and when it is observed.

KAMLOOPS A
BRITISH COLUMBIA

50°42'09.000" N
120°26'55.000" W
345.30 m
1163781
71887
YKA

Download Data

Hourly Data (September 2017)
Hourly Data Report for September 22, 2017
Temp Definition
°C
Dew Point Temp Definition
°C
Rel Hum Definition
%
Wind Dir Definition
10's deg

Wind Spd Definition
km/h
Visibility Definition
km
Stn Press Definition
kPa
Hmdx Definition


Wind Chill Definition


Weather Definition


TIME
00:00 Legend Double Dagger 12.9 0.8 44 27 15 64.4 97.52     LegendNANA
01:00 Legend Double Dagger 12.4 0.5 44 28 22 64.4 97.57     Mainly Clear
02:00 Legend Double Dagger 12.0 0.2 44 29 28 64.4 97.56     LegendNANA
03:00 Legend Double Dagger 11.7 0.8 47 29 26 64.4 97.61     LegendNANA
04:00 Legend Double Dagger 11.6 1.2 49 28 21 64.4 97.67     Mostly Cloudy
05:00 Legend Double Dagger 11.5 1.1 49 29 22 64.4 97.73     LegendNANA
06:00 Legend Double Dagger 10.8 0.4 48 29 19 64.4 97.76     LegendNANA
07:00 Legend Double Dagger 10.2 0.3 50 29 23 64.4 97.79     Mostly Cloudy
08:00 Legend Double Dagger 12.0 0.5 45 29 28 64.4 97.80     LegendNANA
09:00 Legend Double Dagger 13.5 1.2 43 29 28 64.4 97.75     LegendNANA
10:00 Legend Double Dagger 15.1 0.3 36 29 27 64.4 97.69     Mainly Clear
11:00 Legend Double Dagger 17.0 0.3 32 29 23 64.4 97.61     LegendNANA
12:00 Legend Double Dagger 17.7 0.1 30 27 19 64.4 97.52     LegendNANA
13:00 Legend Double Dagger 17.9 -0.1 30 28 22 64.4 97.47     Mostly Cloudy
14:00 Legend Double Dagger 17.7 0.2 30 27 14 64.4 97.42     LegendNANA
15:00 Legend Double Dagger 18.2 0.3 30 28 17 64.4 97.40     LegendNANA
16:00 Legend Double Dagger 17.3 0.6 32 27 11 64.4 97.38     Cloudy
17:00 Legend Double Dagger 16.0 2.8 41 28 8 64.4 97.37     LegendNANA
18:00 Legend Double Dagger 15.1 3.4 45 24 4 64.4 97.37     LegendNANA
19:00 Legend Double Dagger 16.0 -1.1 31 21 8 64.4 97.39     Cloudy
20:00 Legend Double Dagger 14.7 -0.4 35 23 8 64.4 97.41     LegendNANA
21:00 Legend Double Dagger 13.4 0.3 40 20 3 64.4 97.41     LegendNANA
22:00 Legend Double Dagger 12.2 1.7 48 22 3 64.4 97.43     Mostly Cloudy
23:00 Legend Double Dagger 12.5 1.6 47 26 4 64.4 97.44     LegendNANA

Notes on Data Quality.

Legend

  • E = Estimated
  • M = Missing
  • NA = Not Available
  • ‡ = Partner data that is not subject to review by the National Climate Archives
Date modified: